This demonstration page uses our WeatherBlox Daily Observations layout. Learn more.

Left ArrowRight Arrow

Hourly Observations for February 9, 2018

Temp ( °F °C ) Dew Point ( °F °C ) Humidity (%) Winds ( mph kmh ) Pressure ( in mb ) Visibility ( mi km ) Precip ( " mm )
12:53 am 00:53 Clear with Mist and Fog 17 -8.3 14 -10 88 88 NNE 18 30 30.14 1021 4 6 0.00 0.00
1:13 am 01:13 Mostly Clear with Mist and Fog 18 -7.8 15 -9.4 88 88 NNE 17 28 30.21 1023 4 6 0.00 0.00
1:25 am 01:25 Mostly Cloudy with Mist and Fog 18 -7.8 15 -9.4 88 88 NNE 20 31 30.21 1023 4 6 0.00 0.00
1:53 am 01:53 Cloudy with Mist and Fog 19 -7.2 15 -9.4 84 84 NNE 24 39 30.16 1021 4 6 0.00 0.00
2:44 am 02:44 Cloudy with Mist and Fog 16 -9 12 -11 86 86 NNE 26 43 30.27 1025 4 6 0.00 0.00
2:53 am 02:53 Cloudy with Mist and Fog 15 -9.4 11 -11.7 84 84 NNE 23 37 30.22 1023 4 6 0.00 0.00
3:51 am 03:51 Hazy 16 -9 10 -12 79 79 NNE 20 31 30.30 1026 6 10 0.00 0.03
3:53 am 03:53 Hazy 15 -9.4 10 -12.2 80 80 NE 16 26 30.22 1023 6 10 0.00 0.03
4:10 am 04:10 Mostly Cloudy with Mist and Fog 14 -10 10 -12 85 85 NNE 18 30 30.30 1026 6 10 0.00 0.00
4:53 am 04:53 Windy with Snow Likely 13 -10.6 9 -12.8 84 84 NNE 22 35 30.24 1024 3 5 0.00 0.03
5:32 am 05:32 Windy with Snow Likely 12 -11 9 -13 85 85 NNE 20 31 30.36 1028 3 4 0.00 0.00
5:53 am 05:53 Windy with Snow Likely 12 -11.1 8 -13.3 84 84 NNE 24 39 30.30 1026 3 5 0.00 0.03
6:53 am 06:53 Windy with Snow Likely 12 -11.1 8 -13.3 84 84 NNE 21 33 30.35 1028 3 5 0.00 0.03
7:53 am 07:53 Windy with Snow Likely 11 -11.7 7 -13.9 84 84 NNE 20 31 30.35 1028 3 5 0.00 0.03
8:35 am 08:35 Cloudy with Light Snow 11 -11.7 7 -13.9 84 84 NNE 17 28 30.45 1031 7 11 0.00 0.03
8:53 am 08:53 Cloudy with Haze 12 -11.1 7 -13.9 80 80 NNE 20 31 30.38 1029 6 10 0.00 0.03
9:53 am 09:53 Cloudy 12 -11.1 6 -14.4 77 77 NNE 17 28 30.39 1029 9 14 0.00 0.03
10:11 am 10:11 Cloudy with Light Snow 11 -11.7 6 -14.4 81 81 N 17 28 30.45 1031 6 10 0.00 0.03
10:53 am 10:53 Cloudy 12 -11.1 6 -14.4 77 77 NNE 20 31 30.38 1029 9 14 0.00 0.03
11:53 am 11:53 Cloudy with Light Snow 13 -10.6 6 -14.4 74 74 NNE 16 26 30.39 1029 5 8 0.00 0.03
12:21 pm 12:21 Cloudy 12 -11.1 5 -15 73 73 NNE 18 30 30.45 1031 8 13 0.00 0.03
12:53 pm 12:53 Cloudy 12 -11.1 5 -15 73 73 NNE 18 30 30.35 1028 9 14 0.00 0.03
1:53 pm 13:53 Cloudy 13 -10.6 6 -14.4 74 74 NNE 18 30 30.31 1026 10 16 0.00 0.00
2:16 pm 14:16 Cloudy 12 -11.1 5 -15 73 73 NNE 16 26 30.39 1029 8 13 0.00 0.03
2:25 pm 14:25 Cloudy 12 -11.1 5 -15 73 73 NNE 17 28 30.39 1029 10 16 0.00 0.03
2:53 pm 14:53 Cloudy 12 -11.1 5 -15 73 73 NNE 18 30 30.30 1026 10 16 0.00 0.03
3:25 pm 15:25 Cloudy 11 -11.7 4 -15.6 73 73 NNE 17 28 30.36 1028 9 14 0.00 0.00
3:53 pm 15:53 Cloudy 11 -11.7 4 -15.6 73 73 NNE 17 28 30.32 1027 9 14 0.00 0.00
4:25 pm 16:25 Cloudy 11 -11.7 5 -15 77 77 NNE 17 28 30.39 1029 10 16 0.00 0.00
4:53 pm 16:53 Cloudy 11 -11.7 4 -15.6 73 73 NNE 17 28 30.34 1028 10 16 0.00 0.00
5:53 pm 17:53 Cloudy 10 -12.2 3 -16.1 73 73 NNE 17 28 30.38 1029 8 13 0.00 0.03
5:59 pm 17:59 Cloudy 10 -12 3 -16 72 72 N 18 30 30.45 1031 9 14 0.00 0.00
6:14 pm 18:14 Cloudy 9 -13 3 -16 78 78 NNE 22 35 30.48 1032 10 16 0.00 0.00
6:53 pm 18:53 Cloudy 9 -12.8 3 -16.1 77 77 NNE 17 28 30.39 1029 10 16 0.00 0.00
7:53 pm 19:53 Cloudy with Light Snow 8 -13.3 2 -16.7 76 76 NNE 18 30 30.41 1030 6 10 0.00 0.03
8:53 pm 20:53 Cloudy with Light Snow 7 -13.9 2 -16.7 80 80 NNE 18 30 30.41 1030 8 13 0.00 0.03
9:11 pm 21:11 Windy with Snow Likely 7 -13.9 2 -16.7 80 80 NNE 20 31 30.50 1033 2 3 0.00 0.03
9:18 pm 21:18 Cloudy with Light Snow 7 -14 1 -17 78 78 NNE 17 28 30.50 1033 1 2 0.00 0.00
9:44 pm 21:44 Mostly Cloudy with Light Snow 7 -14 1 -17 78 78 NNE 18 30 30.50 1033 1 2 0.00 0.00
9:53 pm 21:53 Mostly Cloudy with Light Snow 6 -14.4 2 -16.7 83 83 NNE 16 26 30.43 1031 1 1 0.00 0.03
10:12 pm 22:12 Mostly Cloudy with Light Snow 6 -14.4 1 -17.2 79 79 N 15 24 30.53 1034 1 1 0.00 0.03
10:42 pm 22:42 Mostly Cloudy with Light Snow 5 -15 1 -17 85 85 N 16 26 30.50 1033 1 2 0.00 0.00
10:53 pm 22:53 Cloudy with Light Snow 5 -15 1 -17.2 83 83 N 14 22 30.43 1031 1 2 0.00 0.03
11:09 pm 23:09 Mostly Cloudy with Light Snow 5 -15 0 -17.8 79 79 NNE 14 22 30.50 1033 1 2 0.00 0.03
11:53 pm 23:53 Cloudy with Light Snow 5 -15 1 -17.2 83 83 N 15 24 30.43 1030 2 2 0.00 0.03

Powered by AerisWeather